Regional Weather Roundup
Issued by NWS Grand Forks, ND

Home | Current Version | Previous Version | Graphics & Text | Print | Product List | Glossary On
Versions: 1 2 3 4 5 6 7 8 9 10 11 12 13 14 15 16 17 18 19 20 21 22 23 24 25 26 27 28 29 30 31 32 33 34 35 36 37 38 39 40 41 42 43 44 45 46 47 48 49 50
000
ASUS43 KFGF 241410
RWRFGF
PRAIRIE TO PINES  WEATHER ROUNDUP
NATIONAL WEATHER SERVICE EASTERN NORTH DAKOTA/GRAND FORKS ND
900 AM CDT SUN MAY 24 2015

 **SATELLITE DATA USED TO AUGMENT SKY COVER AT AUTOMATED STATIONS**
 *****  WEATHER ACROSS EASTERN NORTH DAKOTA  *****

CITY           SKY/WX    TMP DP  RH WIND       PRES   REMARKS
GRAND FORKS    MOSUNNY   63  49  60 CALM      30.06F
GRAND FRKS AFB MOSUNNY   62  49  62 SE2       30.07F
GRAND FRKS NWS   N/A     55 N/A N/A MISG        N/A
DEVILS LAKE    MOSUNNY   63  52  67 CALM      30.07F
FARGO          CLOUDY    64  50  60 NE8       30.05F
WAHPETON ARPT  CLOUDY    61  46  59 E5        30.02F
$$

 ***** WEATHER ACROSS CENTRAL AND WESTERN NORTH DAKOTA  *****

CITY           SKY/WX    TMP DP  RH WIND       PRES   REMARKS
BISMARCK       CLOUDY    60  53  77 E10       30.06S
MINOT          PTSUNNY   58  47  66 S3        30.06F
JAMESTOWN      CLOUDY    61  51  70 NE10      30.04F
MINOT AFB      PTSUNNY   66  52  60 E3        30.05S
GARRISON         N/A     59  52  77 E5        30.06F
WILLISTON      MOSUNNY   53  44  71 NE5       30.06F
DICKINSON      LGT RAIN  51  49  92 E8        30.06R FOG
HETTINGER      CLOUDY    53  50  89 NE10      30.05S
$$

 *****  OTHER AIRPORT OBSERVATIONS IN OUR AREA  *****

CITY           SKY/WX    TMP DP  RH WIND       PRES   REMARKS
WALHALLA         N/A     68  48  49 NW5       30.06S
GRAFTON AIRPOR FAIR      63  50  63 CALM      30.08S
VALLEY CITY AR FAIR      61  55  82 N7        30.05F
CANDO          FAIR      63  48  59 NE3       30.07F
CAVALIER APRT  FAIR      64  48  55 SE3       30.07S
GWINNER        NOT AVBL
SHEYENNE NWR     N/A     61  50  66 NE6       29.95S
ROLLA          FAIR      66  36  32 CALM      30.08F
 ***** THE ABOVE OBSERVATIONS ARE NON NWS ARE NOT QUALITY
       CONTROLLED AND MAY MIS-REPORT RAIN FOR SNOW...
$$

  *****  WEATHER ACROSS NORTHERN MINNESOTA  *****

CITY           SKY/WX    TMP DP  RH WIND       PRES   REMARKS
FLAG ISLAND    SUNNY     61  50  67 CALM      30.05S
WARROAD        SUNNY     66  52  59 W5        30.07F
ROSEAU         SUNNY     64  52  63 SW5       30.08S
HALLOCK        SUNNY     64  50  59 S6        30.07S
THF RVR FALLS  MOSUNNY   63  46  55 CALM      30.09F
BAUDETTE       SUNNY     65  47  52 N5        30.07F
WASKISH        SUNNY     63  50  63 CALM      30.09F
CROOKSTON      MOSUNNY   64  48  55 CALM      30.08S
STEPHEN NDAWN    N/A     66  50  55 S6          N/A
GREENBUSH NDAW   N/A     66  52  59 S2          N/A
$$
  *****  WEATHER ACROSS CENTRAL AND WEST MINNESOTA  *****

CITY           SKY/WX    TMP DP  RH WIND       PRES   REMARKS
FOSSTON        MOSUNNY   63  52  67 CALM      30.09S
BEMIDJI        MOSUNNY   63  48  57 CALM      30.09F
PARK RAPIDS    CLOUDY    63  46  54 E5        30.08S
ELBOW LAKE     CLOUDY    60  49  65 E9        30.02F
WADENA         CLOUDY    57  46  67 E5        30.07S
DETROIT LAKES  CLOUDY    63  46  55 E5        30.07S
MOORHEAD       CLOUDY    63  50  63 E8        30.05F
FERGUS FALLS   CLOUDY    61  48  63 E7        30.04F
MORRIS MN      CLOUDY    63  50  63 E12       30.00F
STAPLES        CLOUDY    57  48  72 CALM      30.07F
$$
  *****  WEATHER ELSEWHERE ACROSS MINNESOTA  *****

CITY           SKY/WX    TMP DP  RH WIND       PRES   REMARKS
DULUTH         PTSUNNY   65  45  48 VRB3      30.11S
INTRNTL FALLS  SUNNY     66  47  50 NW5       30.08F
ELY            SUNNY     66  43  42 W5        30.11S
CLOQUET        PTSUNNY   63  45  51 CALM      30.11S
WHEATON        CLOUDY    61  48  63 E9        30.03F
BRAINERD       CLOUDY    59  50  72 NE8       30.08F
HIBBING        MOSUNNY   65  45  48 NE3       30.11F
ALEXANDRIA     CLOUDY    60  48  64 E9        30.05F
SAINT CLOUD    CLOUDY    59  50  72 E6        30.05F
MINNEAPOLIS    CLOUDY    63  51  65 E8        30.05F
$$

  *****  WEATHER ACROSS SOUTH DAKOTA  *****

CITY           SKY/WX    TMP DP  RH WIND       PRES   REMARKS
SIOUX FALLS    CLOUDY    60  58  92 E12       29.95S
BROOKINGS      CLOUDY    59  55  88 E9        29.98S
WATERTOWN      CLOUDY    57  52  83 NE5       30.00S
HURON          CLOUDY    58  56  93 NE5       29.96F FOG
SISSETON         N/A     60  50  69 E5        30.01F
ABERDEEN       CLOUDY    60  51  72 NE8       29.99F
MITCHELL       LGT RAIN  59  58  96 NE7       29.95S FOG
PIERRE         CLOUDY    56  54  93 NE8       29.95F
MOBRIDGE       CLOUDY    58  50  75 E9        29.98S
RAPID CITY     HVY RAIN  52  51  97 E17       29.93F FOG
$$

  *****  SOME WEATHER IN NEARBY STATES *****

CITY           SKY/WX    TMP DP  RH WIND       PRES   REMARKS
GLASGOW MT     CLOUDY    51  43  74 NW3       30.07S
GREAT FALLS MT MOSUNNY   49  48  97 NE6       30.10S
CHEYENNE WY    SUNNY     46  40  79 CALM      29.90F
SCOTTSBLUFF NE CLOUDY    53  51  93 CALM      29.89S
OMAHA NE       DRIZZLE   61  60  97 E7        29.85F FOG
DES MOINES IA  CLOUDY    63  59  87 SE17G23   29.92F
DAVENPORT IA   LGT RAIN  59  56  89 E12       30.09F
CHICAGO IL     CLOUDY    64  53  67 E3        30.17F
EAU CLAIRE WI  CLOUDY    64  47  53 E3        30.08S
LA CROSSE WI   LGT RAIN  61  54  77 S10       30.11R
$$

  *****  SOME NATIONAL WEATHER *****

CITY           SKY/WX    TMP DP  RH WIND       PRES   REMARKS
LA GUARDIA NY  MOSUNNY   69  42  37 SW9       30.35F
RALEIGH NC     MOSUNNY   72  61  68 CALM      30.43S
ATLANTA GA     PTSUNNY   71  61  70 SE10      30.36R
NEW ORLEANS LA PTSUNNY   82  72  71 S13       30.10R
OKLAHOMA CITY  CLOUDY    63  60  90 SE8       29.90R
ALBUQUERQUE NM PTSUNNY   52  37  56 W3        30.01R
SALT LAKE CITY PTSUNNY   51  44  77 SE7       29.95F
LOS ANGELES CA PTSUNNY   59  52  77 W5        30.02R
BOISE ID       PTSUNNY   59  50  72 S6        29.96R
SEATTLE WA     CLOUDY    53  48  83 SW5       30.16S
$$

*** WEATHER ACROSS MANITOBA...SASKATCHEWAN AND ONTARIO ***
                ***ONTARIO***

CITY           SKY/WX    TMP DP  RH WIND       PRES   REMARKS
GERALDTON      MOSUNNY   59  45  58 N2        30.03F
THUNDER BAY    PTSUNNY   70  46  43 W6        30.05F
SIOUX LOOKOUT  MOSUNNY   63  41  45 W6        30.05R
TORONTO        PTSUNNY   73  43  33 SW8       30.24F
BIG TROUT LK   SUNNY     54  30  40 W14       29.96F
PICKLE LAKE    MOSUNNY   57  32  38 W5        30.05F
DRYDEN         SUNNY     64  45  48 W6        30.04F
KENORA         PTSUNNY   64  46  52 W6        30.06F
$$
                *** MANITOBA***

CITY           SKY/WX    TMP DP  RH WIND       PRES   REMARKS
BRANDON        NOT AVBL
DAUPHIN        SUNNY     55  45  67 VRB2      30.08S
ISLAND LAKE    SUNNY     52  32  46 W6        30.05F
PILOT MOUND      N/A     66  45  45 NW7         N/A
THE PAS        MOSUNNY   59  41  51 SW3       30.07S
THOMPSON       SUNNY     61  27  27 W13       29.99F
WINNIPEG       MOSUNNY   63  48  59 W6        30.05S
LYNN LAKE      SUNNY     63  25  23 W13       29.98F
CHURCHILL      PTSUNNY   37  30  75 NW20G28   29.92R
$$
                ***SASKATCHEWAN***

CITY           SKY/WX    TMP DP  RH WIND       PRES   REMARKS
ESTEVAN        MOSUNNY   61  45  55 SW3       30.06F
KINDERSLEY     PTSUNNY   59  34  38 SW3       30.09S
LLOYDMINSTER   MOSUNNY   57  45  62 E2        30.05F
PRINCE ALBERT  MOSUNNY   57  46  67 E5        30.05F SMOKE
REGINA         MOSUNNY   61  41  48 NW3       30.07F
YORKTON        SUNNY     59  48  67 VRB2      30.06F
N. BATTLEFORD  SUNNY     59  39  47 SW6       30.07S
LA RONGE       MOSUNNY   57  37  47 SW3       30.06F
SASKATOON      MOSUNNY   61  41  48 VRB2      30.07S
SWIFT CURRENT  SUNNY     61  36  39 NW7       30.09F
$$
NOTE: THESE ARE AUTOMATED STATIONS WITH LIMITED QUALITY CONTROL
      "FAIR" INDICATES FEW OR NO CLOUDS BELOW 12,000 FEET WITH NO
      SIGNIFICANT WEATHER AND/OR OBSTRUCTIONS TO VISIBILITY.
      SKY/WX - SKY CONDITION AND SIGNIFICANT WEATHER.
      TMP - AIR TEMPERATURE.    DP   - DEWPOINT TEMPERATURE.
      RH  - RELATIVE HUMIDITY.  PRES - PRESSURE.
      HX  - HEAT INDEX.         WCI  - WIND CHILL INDEX.
$


USA.gov is the U.S. government's official web portal to all federal, state and local government web resources and services.